Vorticity
1 -1 -2 3 6 5 -2 -1 -0 -0 -0 4 6 6 7 8 6 5 3 2 2 1 1 2 3 4 5 4 2 2 1 2 1 -1 -1 5 10 12 10 4 2 2 4 4 4 3 3 3 3 3 3 3 3 3 4 4 5 6 6 6 6 6 7 8 7 6 6 5 5 4 4 3 3 2 2 2 2 1 1 0 -0 -0 -0 -1 -0 -0 -0 0 0 0 1 1 2 2 3 4 4 4 4 4 4 3 3
3 0 -3 -0 4 6 2 1 2 2 -3 0 4 5 6 6 6 6 4 3 2 2 1 1 2 4 5 5 4 2 1 2 2 0 -2 2 8 12 14 6 2 1 3 4 4 4 4 4 4 3 3 3 3 3 3 4 4 5 6 5 5 6 7 8 8 7 6 6 5 4 4 3 3 2 2 2 2 1 1 0 0 -0 -0 -1 -1 -1 -0 -0 -0 0 0 0 1 2 2 3 4 4 4 4 4 3 3
4 2 -2 -2 1 4 5 1 3 5 -0 -2 -0 3 5 5 5 5 5 4 3 2 2 1 2 3 5 5 4 3 2 2 2 1 -1 1 6 13 16 9 3 -0 2 3 4 4 4 4 4 4 3 3 3 3 3 4 4 5 5 5 5 5 6 7 8 8 7 6 6 5 4 4 3 2 2 2 2 2 1 1 0 -0 -0 -1 -1 -1 -1 -0 -0 -0 0 0 0 1 2 2 4 4 4 4 4 3 3
4 4 0 -2 -1 2 6 0 2 6 8 -2 -4 -1 2 4 4 4 4 4 4 3 2 2 2 3 4 5 5 4 3 2 2 2 1 -0 4 10 17 12 5 -0 0 3 4 4 4 4 4 4 4 3 3 3 3 3 4 4 5 5 5 5 5 6 7 8 8 7 6 6 5 4 3 3 2 2 2 2 1 1 1 0 -0 -0 -1 -1 -1 -1 -0 -0 0 0 0 0 1 2 3 4 5 5 4 4 3
4 4 2 -1 -2 -0 6 2 0 4 12 3 -2 -4 -1 2 3 3 3 4 4 3 3 3 2 3 4 5 5 5 3 2 1 1 2 0 1 6 14 14 8 1 -1 2 3 4 4 4 4 4 4 3 3 3 3 3 4 4 5 5 5 5 5 6 6 7 8 8 7 7 6 5 4 3 3 2 2 2 2 1 1 1 0 -0 -0 -1 -1 -1 -0 -0 -0 0 0 0 0 1 2 3 4 5 4 4 3
2 4 4 1 -2 -2 3 2 -2 -3 6 9 5 -1 -4 -1 2 3 2 2 2 3 3 3 3 3 4 5 6 5 4 2 1 1 2 1 1 3 9 13 10 4 -1 1 3 4 4 4 4 4 4 4 3 3 3 3 3 4 4 4 5 5 4 5 6 7 8 8 8 8 7 6 5 4 3 3 2 2 2 2 2 1 1 0 -0 -0 -1 -1 -1 -0 -0 0 0 0 0 1 2 2 4 4 4 4 4
2 3 5 3 0 -1 2 2 -4 -10 -8 9 12 8 -2 -2 -0 2 3 2 2 2 3 3 3 3 3 4 5 6 6 4 2 1 0 1 2 3 6 12 11 7 -0 0 2 3 4 4 4 4 4 4 3 3 2 2 3 3 4 4 4 5 4 5 5 6 7 8 8 8 8 7 6 5 4 3 3 3 2 2 2 2 1 1 0 -0 -0 -1 -0 -0 -0 0 0 0 0 0 1 2 3 4 4 4 4
4 2 4 4 2 1 1 1 -6 -13 -20 -1 12 16 8 1 -1 0 2 2 2 1 2 2 3 4 4 2 2 5 9 9 6 2 -0 -0 1 4 10 12 12 9 3 1 1 3 4 4 4 4 4 4 4 3 2 2 2 3 3 4 4 4 4 4 5 5 6 7 8 8 9 8 8 6 5 4 4 3 3 3 2 2 2 1 1 0 -0 -0 -0 -0 -0 -0 0 0 0 0 1 1 2 4 4 4 4
9 5 3 3 3 2 2 1 -4 -12 -20 -12 3 15 16 7 2 -0 1 2 2 2 1 2 2 3 4 2 -0 1 10 13 11 6 1 -1 5 14 21 16 13 10 6 2 1 2 3 4 4 4 4 4 4 3 2 2 2 2 3 3 4 4 4 4 4 5 6 6 7 8 9 9 9 8 7 6 4 4 3 3 3 2 2 2 1 1 0 -0 -0 -0 -0 -0 0 0 0 0 1 1 2 3 4 4 4
15 10 5 4 3 3 3 1 -2 -6 -13 -16 -8 4 16 13 7 2 0 2 2 2 1 1 2 3 4 3 -1 -3 3 14 16 12 3 -3 4 16 25 20 15 11 9 4 2 2 3 3 4 4 4 4 4 4 3 2 2 2 2 3 3 4 4 4 4 5 5 6 7 7 8 10 10 9 9 7 6 5 4 4 3 3 3 2 2 1 1 0 0 -0 -0 -0 0 0 1 1 1 1 2 3 4 4 4
18 17 12 6 3 3 3 2 1 -2 -5 -12 -14 -8 5 12 11 7 2 2 3 3 2 1 1 2 4 4 1 -3 -4 13 21 20 9 -7 -14 -12 4 13 14 12 10 7 4 2 2 3 3 4 4 4 4 4 3 2 2 2 2 2 3 3 3 3 4 4 5 5 6 7 8 9 10 10 10 9 8 6 5 5 4 4 4 3 2 2 2 1 0 0 -0 -0 0 0 1 1 1 1 1 2 3 4 4
14 20 19 11 5 3 3 3 2 1 -0 -5 -12 -14 -9 6 12 11 6 3 3 3 3 1 1 2 3 4 3 -0 -6 9 22 28 19 -0 -19 -28 -22 -6 4 9 10 9 7 3 1 2 3 4 3 4 4 4 4 3 2 2 2 2 2 3 3 3 3 4 4 5 5 6 7 8 9 10 10 10 9 8 7 6 5 5 4 4 3 3 2 2 1 1 0 0 0 0 1 1 1 1 1 2 3 4 4
7 18 24 17 9 4 3 3 3 2 1 -0 -6 -12 -17 -3 9 15 10 6 4 4 4 2 1 1 2 3 4 2 -4 0 13 24 25 12 -4 -17 -21 -13 -3 5 8 10 9 7 2 1 2 3 3 3 3 4 4 3 3 2 2 2 2 2 2 2 3 3 4 4 5 5 6 6 7 8 10 10 10 9 8 7 6 6 5 5 4 4 3 2 2 1 1 0 0 1 1 1 1 1 1 2 3 3 4
3 16 24 21 13 7 4 4 3 3 2 2 -0 -6 -13 -13 -0 14 19 11 6 4 4 4 2 1 1 2 3 3 0 -5 -2 8 19 17 9 -1 -9 -9 -5 0 6 8 10 10 6 2 1 2 3 3 3 3 4 4 3 3 2 2 2 2 2 2 2 3 3 3 4 4 5 6 6 7 8 9 10 10 9 8 8 7 6 6 5 4 4 3 2 2 1 1 1 1 1 1 1 1 1 2 2 3 4
3 13 23 20 14 8 6 6 5 4 3 3 2 -0 -6 -14 -11 1 22 18 11 6 4 4 3 2 0 1 2 3 3 -2 -6 -4 6 14 14 9 1 -4 -6 -4 1 4 8 12 13 6 2 1 2 3 3 3 3 4 4 3 3 2 2 2 2 2 2 2 2 3 3 4 4 5 5 6 7 8 8 9 10 9 8 8 7 6 6 5 5 4 3 3 2 2 1 1 1 2 1 1 1 2 2 3 4
3 11 19 17 11 6 7 9 8 5 4 3 3 2 -0 -8 -14 -12 8 22 20 11 4 4 4 3 2 1 1 2 3 2 -1 -2 0 9 13 13 8 1 -4 -6 -5 1 7 12 16 11 6 2 1 3 3 3 3 4 4 4 3 3 3 3 2 2 2 2 2 2 3 3 3 4 4 5 6 6 7 8 9 9 9 8 8 7 6 6 6 5 4 4 3 2 2 2 2 2 2 2 1 2 2 3 3
3 8 15 12 6 1 4 10 11 8 5 4 3 3 2 -2 -10 -16 -13 13 24 21 9 5 4 4 2 1 1 1 2 3 3 3 3 8 12 14 11 6 0 -4 -4 5 13 18 20 17 11 5 1 2 3 3 3 3 4 4 4 3 3 3 3 2 2 2 2 2 2 3 3 3 4 4 4 5 6 7 8 8 9 9 8 8 7 7 6 6 5 4 4 3 3 2 2 2 2 2 2 2 2 3 3
4 6 11 9 3 -3 -4 7 12 12 8 5 4 3 3 2 -2 -10 -20 -4 15 27 20 8 5 6 6 3 1 1 1 2 3 4 4 7 11 13 13 9 4 -0 -2 6 18 27 28 24 17 9 3 2 2 3 3 3 3 4 4 4 4 4 3 3 2 2 2 3 3 3 3 3 3 3 4 4 5 6 6 7 8 8 8 8 8 7 7 6 6 5 4 4 3 3 3 2 2 2 2 2 2 3 3
7 5 7 7 4 -1 -6 0 7 12 13 8 5 3 3 4 2 -2 -13 -16 -1 19 30 16 7 5 11 6 4 2 3 3 3 3 3 5 8 12 13 11 7 3 -1 -5 8 24 29 27 22 15 7 3 2 2 3 3 3 3 3 3 4 4 4 3 3 2 2 3 3 3 3 3 3 3 3 3 4 4 5 6 7 8 8 8 8 8 7 7 6 6 5 4 4 4 3 3 2 2 2 2 2 3 3
14 9 7 6 5 2 -1 -4 -0 6 13 12 8 4 3 3 4 2 -2 -15 -14 0 24 17 9 4 8 7 6 6 7 6 4 3 1 1 4 8 13 13 10 6 2 -15 -8 9 23 23 22 19 12 7 3 1 2 2 3 3 3 3 3 4 4 3 3 2 2 3 3 3 3 3 3 2 2 3 3 4 4 5 6 6 7 7 8 8 7 7 7 6 6 5 5 4 4 3 3 2 2 2 2 3 3
20 15 10 8 6 5 5 0 -3 -2 6 12 11 8 4 3 4 4 3 -7 -17 -18 -0 2 3 5 9 9 11 13 13 10 6 3 0 -1 -0 3 10 13 13 10 6 -13 -24 -19 6 10 14 17 19 12 6 2 1 2 2 2 2 2 3 3 4 3 3 3 2 3 3 3 3 3 3 2 2 2 3 3 3 4 4 5 6 6 7 7 7 7 7 6 6 6 5 4 4 4 3 2 2 2 2 3 3
23 20 15 11 8 6 7 7 2 -3 -0 8 12 12 7 4 3 4 4 1 -9 -18 -18 -12 -8 -4 1 10 18 22 18 12 7 3 0 -2 -2 -0 4 12 15 14 10 -2 -24 -38 -29 -11 -1 7 19 17 11 4 0 1 2 2 2 2 2 2 3 3 3 3 2 2 3 3 3 3 3 3 3 2 2 3 3 3 4 4 5 5 6 6 6 6 6 6 6 6 5 4 4 4 3 3 2 2 3 3 3
23 22 18 15 11 9 9 11 8 3 0 5 11 14 12 7 4 4 3 4 0 -5 -11 -7 -7 -8 -11 0 17 28 21 13 7 4 0 -1 -2 -2 0 8 14 17 14 7 -8 -24 -38 -27 -17 -7 8 18 16 9 1 0 1 3 2 2 2 2 3 3 3 3 2 2 2 3 3 3 3 3 3 3 3 3 3 3 3 3 4 4 4 5 5 5 5 5 5 5 5 4 4 3 3 3 2 3 3 3 3
22 22 20 16 13 12 11 13 12 10 6 7 10 14 14 9 6 4 3 4 4 4 2 2 1 -3 -9 -9 5 19 22 13 7 4 1 -0 -1 -1 -1 3 10 16 17 13 6 -2 -13 -21 -19 -8 11 20 20 14 6 1 -0 1 4 2 2 2 2 2 2 2 2 2 2 2 2 3 3 3 3 3 3 3 3 3 3 3 3 3 4 4 4 4 4 4 4 4 4 4 4 3 3 3 2 3 3 3 4
22 21 20 16 13 11 10 13 14 14 12 10 11 13 14 10 7 5 4 4 5 5 5 4 4 2 -1 -5 -6 -1 14 12 8 5 2 -0 -0 -0 -0 0 4 10 16 15 12 9 6 -2 -6 1 24 26 23 18 12 5 0 -1 2 3 3 2 2 2 2 2 2 2 2 2 2 2 2 2 3 3 3 3 3 3 3 3 3 3 3 3 3 3 4 4 4 4 4 4 3 3 3 3 3 3 3 3 4
21 21 21 18 14 11 8 10 13 15 16 14 12 12 13 10 7 4 4 5 5 4 2 2 4 5 5 3 -4 -10 -10 2 7 6 3 1 0 0 1 0 1 4 10 13 13 12 11 7 1 -1 10 14 16 16 15 10 5 1 -1 2 3 3 2 2 2 2 2 2 2 2 2 3 3 3 2 2 3 3 3 4 3 3 3 2 2 2 3 3 3 3 3 3 3 3 3 3 3 3 3 3 3 4 4
20 21 21 19 16 13 10 9 11 13 16 15 14 12 12 10 7 4 3 4 5 3 0 -1 2 8 10 8 4 -6 -23 -16 -6 3 4 3 2 2 2 1 0 0 2 6 10 12 13 10 2 -9 -23 -15 -3 7 12 12 10 6 0 0 2 3 2 2 2 2 2 2 2 2 3 4 4 4 3 3 3 3 3 4 4 4 3 3 3 3 3 2 3 3 3 3 3 3 3 3 3 3 3 3 3 3 4
17 19 20 19 17 14 11 10 10 12 15 16 15 14 12 12 10 6 2 4 4 3 -0 -4 -0 8 16 13 8 1 -9 -23 -19 -7 2 4 6 6 2 2 1 0 -1 -0 3 8 13 13 8 -2 -20 -25 -16 -2 5 8 10 9 5 -0 -0 2 3 2 1 2 2 2 2 2 2 3 4 5 5 4 4 4 4 4 4 4 4 4 4 4 3 3 3 3 3 3 3 3 3 3 3 3 3 3 3 3 3
15 17 19 19 18 15 13 10 9 10 13 15 16 16 15 15 14 12 6 3 3 2 0 -5 -4 4 18 18 13 7 4 -10 -16 -13 -1 4 8 8 4 2 2 1 0 -2 -3 -1 5 13 15 11 2 -9 -10 -6 1 4 6 7 9 4 -0 -1 3 3 2 2 2 2 2 2 2 2 3 4 6 6 6 5 5 4 4 5 5 5 4 4 4 4 4 3 3 3 3 3 3 3 3 3 3 3 3 4 4
17 16 16 17 17 16 14 12 10 9 11 13 16 18 18 18 18 17 13 6 3 2 2 -1 -6 -5 9 19 17 11 6 2 -3 -7 -3 3 7 7 4 2 2 2 2 0 -2 -4 -5 4 11 15 14 6 1 -0 1 1 2 5 13 13 5 -1 1 4 3 1 2 2 2 2 2 2 2 3 5 6 6 6 5 5 5 5 5 5 5 5 5 4 4 4 4 3 3 3 3 3 3 3 3 3 3 4 4
22 18 16 16 16 16 15 13 11 10 9 11 14 17 19 19 20 20 17 10 5 2 4 7 -1 -10 -8 12 18 15 7 6 4 2 -0 4 5 4 1 1 2 3 3 2 1 -1 -6 -7 -3 4 10 11 9 7 5 2 5 15 30 31 19 4 -1 4 4 3 1 2 2 2 2 2 2 2 4 5 6 6 6 6 6 6 6 6 6 6 5 5 4 4 4 4 4 3 3 3 3 3 3 3 3 3 4
28 23 18 16 16 15 14 14 13 11 9 10 12 16 18 19 20 20 18 13 8 4 5 13 7 -6 -18 1 14 17 8 7 7 6 5 6 5 3 -1 -2 1 3 4 2 2 1 -0 -4 -7 -7 -4 3 7 7 4 6 18 36 54 53 36 14 -1 4 7 6 1 1 2 2 2 1 1 2 2 3 4 6 7 7 7 7 7 7 7 6 6 6 5 5 4 4 4 4 3 3 3 3 3 3 3 3 3
33 29 24 20 17 16 15 14 13 12 10 9 10 13 16 18 19 19 18 15 11 7 9 16 13 1 -16 -6 9 18 9 7 8 9 8 7 6 3 -0 -2 -1 1 4 3 2 1 1 1 -1 -3 -4 -1 2 4 3 14 28 42 50 54 43 25 5 5 8 9 4 1 1 2 2 1 1 2 2 2 3 4 5 6 7 8 8 8 8 8 8 7 6 6 5 5 4 4 4 4 4 4 4 4 3 3 3
35 34 30 25 21 18 16 14 14 13 11 9 9 11 13 16 18 18 18 16 13 12 14 19 16 7 -6 -4 10 20 13 9 9 10 8 7 6 5 1 -0 -2 -1 2 3 2 0 0 2 3 2 -0 -2 -1 2 6 18 23 21 11 26 32 30 18 9 8 10 10 2 -0 1 2 1 0 -0 1 2 2 3 4 4 5 6 8 8 8 8 9 9 8 8 7 7 6 6 6 5 5 5 4 4 4 4 3
33 35 34 30 26 21 18 16 14 14 13 11 10 10 12 14 15 16 16 15 15 15 18 21 18 12 3 5 14 21 18 11 8 7 5 5 6 7 4 1 -1 -1 -0 2 2 0 -0 2 3 4 4 0 -1 0 5 13 13 3 -20 -12 4 19 22 13 9 9 14 5 1 -1 2 2 1 -1 -1 1 2 3 3 3 4 5 5 6 7 7 8 8 9 9 9 9 8 8 7 7 7 6 6 5 5 4 4
28 33 35 34 30 26 22 18 16 15 15 13 11 10 12 13 14 14 13 14 15 16 18 21 19 16 10 14 17 18 17 14 10 6 3 -0 4 10 7 3 1 0 -0 1 1 -0 -1 2 3 4 5 3 1 -1 1 6 8 4 -9 -21 -20 -10 4 5 6 8 13 9 3 -1 0 2 2 0 -1 -1 0 2 3 3 3 4 4 4 5 6 6 7 7 8 9 9 9 9 9 9 8 8 7 7 6 6 5
23 28 34 35 33 30 26 22 19 17 16 15 13 12 11 13 13 12 11 11 13 15 17 19 19 18 16 20 16 10 7 14 14 10 6 -4 1 10 13 6 3 2 1 1 -0 -1 -2 1 3 4 5 5 3 0 -1 1 3 5 7 2 -4 -8 -7 -4 0 5 11 11 6 1 -1 1 2 1 -0 -1 -1 -0 1 2 2 3 2 3 4 4 4 4 5 6 7 8 8 9 9 9 9 9 8 8 8 7 6
18 23 29 33 34 34 30 27 23 20 17 16 15 13 11 12 12 12 10 10 11 13 15 17 18 19 21 23 14 2 -5 7 14 16 12 -1 -1 7 17 11 7 4 2 1 0 -1 -2 0 2 4 4 6 5 3 -1 -1 -1 0 4 12 19 22 18 12 10 10 13 12 9 4 -0 -0 1 1 1 -0 -1 -1 -0 0 1 2 2 2 3 3 3 4 4 4 5 6 6 7 8 8 8 8 9 9 8 8 8
15 18 22 28 33 35 34 31 27 23 20 18 16 14 12 13 13 13 12 11 11 12 13 15 16 18 22 25 17 3 -11 -3 8 16 18 7 0 2 18 14 10 6 3 2 2 0 -2 -0 2 4 4 6 7 6 2 -1 -3 -4 -4 6 17 27 32 35 33 28 20 15 10 5 0 -1 -1 0 1 1 0 0 -0 0 1 1 2 2 2 3 3 4 4 5 5 6 6 6 6 7 7 8 8 8 8 8 8
13 15 17 22 28 32 35 34 31 27 23 20 18 17 14 14 14 14 14 13 12 11 12 13 15 17 21 25 20 9 -7 -10 -2 10 20 16 6 2 14 13 12 9 5 3 2 1 -2 -1 2 4 4 5 6 7 6 2 -2 -6 -8 -3 1 10 28 49 53 45 30 19 12 6 2 -2 -2 -2 0 1 2 2 1 2 1 1 1 2 2 3 3 4 4 5 6 6 6 7 6 6 6 7 7 8 8 8 8
12 13 14 17 22 28 33 34 33 30 26 23 21 18 17 16 15 15 15 14 13 12 12 12 13 14 18 24 24 17 3 -10 -10 1 16 20 14 7 7 10 11 9 7 5 4 2 -2 -2 1 3 4 4 6 8 8 5 -0 -5 -8 -10 -13 -5 26 55 61 52 36 24 16 10 6 1 -3 -4 -2 0 2 2 3 3 3 2 2 2 2 3 4 5 5 5 5 5 6 7 7 7 6 7 7 7 8 8 8
11 12 13 14 17 22 28 32 34 32 30 27 24 21 19 18 17 16 15 15 14 14 13 12 12 12 15 21 25 23 15 -4 -13 -9 7 20 21 14 4 7 8 8 10 7 6 4 -0 -2 1 5 8 5 5 7 9 8 4 -2 -6 -10 -15 -12 13 41 48 44 37 29 21 15 13 8 2 -2 -4 -1 1 2 3 4 4 4 4 3 3 4 4 5 6 5 5 5 5 6 7 7 7 7 8 8 8 8 8
10 11 13 13 14 17 22 28 32 33 33 30 27 24 21 20 19 18 16 15 15 15 15 13 12 12 13 18 24 26 22 6 -8 -12 -1 17 25 22 9 6 6 8 10 11 10 7 2 -1 0 4 7 5 5 7 10 11 7 3 -1 -2 -5 -9 -10 6 16 23 27 29 24 18 15 15 10 3 -2 -1 0 2 2 3 3 4 4 4 4 4 4 5 5 5 5 4 4 5 6 7 8 8 8 8 8 8 8
9 10 11 12 13 14 17 22 28 32 34 32 30 27 24 22 20 19 18 16 15 14 15 14 12 11 11 15 20 24 25 13 2 -5 -2 12 23 28 22 11 7 8 10 12 12 10 6 2 -0 -1 2 4 4 4 5 8 8 6 4 6 8 4 -14 -20 -14 -3 7 17 22 21 16 17 13 7 3 6 7 6 4 3 3 3 3 4 4 4 4 4 4 4 4 4 3 3 4 5 6 7 7 8 8 9 8
8 9 10 11 12 13 13 17 23 28 32 32 31 29 26 24 22 20 19 17 16 14 14 13 13 12 10 12 15 19 22 15 8 3 2 6 16 26 29 22 17 13 12 13 13 12 9 5 2 -1 -3 -3 -2 0 2 6 8 8 4 4 10 12 5 -18 -28 -27 -17 -3 9 18 19 22 17 8 3 11 16 16 11 7 5 4 3 3 4 4 4 4 4 4 3 3 2 2 2 3 4 5 6 7 7 8 8
8 9 10 10 11 12 12 13 18 23 29 32 32 30 28 25 24 22 20 18 17 15 13 12 12 12 11 10 11 14 18 15 11 8 6 3 8 16 25 27 25 23 20 18 16 14 12 8 5 2 0 -2 -2 -1 1 5 8 8 2 -4 -1 8 17 -3 -23 -37 -37 -25 -10 4 13 22 20 11 -3 -1 6 12 13 12 9 6 4 2 3 4 4 4 4 4 3 2 2 2 2 2 2 3 4 5 6 6 7
7 8 9 9 10 11 11 12 14 18 24 29 31 31 29 27 25 24 22 20 18 16 13 11 10 10 10 10 11 12 15 14 13 10 8 3 2 6 13 19 23 26 26 26 24 21 18 13 8 5 3 2 1 0 -0 2 5 7 4 -11 -17 -14 2 1 -11 -25 -35 -32 -22 -10 1 14 20 17 1 -10 -10 -5 2 6 7 6 4 2 2 3 4 4 4 4 4 3 2 2 2 2 2 2 3 3 4 4 5
6 7 8 9 9 10 10 11 12 14 18 24 28 30 29 28 27 26 25 23 20 18 14 13 11 10 10 10 11 13 14 14 14 12 10 6 2 1 3 8 13 18 23 27 29 29 27 22 16 11 7 6 4 2 0 2 4 7 8 1 -16 -30 -28 -18 -14 -14 -18 -20 -17 -12 -4 6 16 20 14 0 -7 -10 -8 -3 0 2 2 1 2 2 3 3 4 4 4 4 4 3 3 2 1 1 1 1 2 2 2
6 6 7 8 9 10 10 10 11 12 14 19 24 28 30 29 28 27 26 25 23 20 17 16 14 12 10 10 11 13 16 15 14 13 11 8 5 2 -2 -2 1 6 12 18 24 28 31 30 25 20 15 11 8 5 3 1 3 6 8 8 3 -9 -25 -27 -24 -20 -15 -9 -5 -1 2 7 13 18 21 13 5 -2 -5 -4 -2 0 1 1 1 1 2 3 3 4 4 4 5 5 5 4 3 2 1 0 0 1 1
5 6 7 8 9 10 10 10 10 11 11 14 19 24 28 29 29 28 27 27 26 23 20 18 16 14 12 10 11 13 17 17 15 12 10 7 6 6 2 -5 -7 -6 -1 5 11 18 26 30 30 27 22 18 13 10 7 5 3 2 4 6 7 6 1 -5 -8 -9 -9 -4 3 9 13 14 15 18 20 18 14 9 3 1 0 1 1 1 1 1 1 2 3 4 4 5 6 6 6 6 6 5 4 3 2 2 1
5 5 6 7 9 10 10 10 10 10 10 11 14 18 24 28 29 28 28 29 28 27 23 19 16 14 14 12 12 14 17 17 14 10 7 6 7 7 5 2 -1 -3 -4 -2 -0 4 13 21 27 28 27 23 19 14 11 9 7 5 4 5 5 5 6 7 9 9 7 6 10 15 20 20 19 18 19 19 17 14 10 6 3 2 1 0 0 0 0 1 2 3 4 5 6 6 7 7 7 7 6 5 5 4 4
5 5 5 6 8 10 10 10 10 10 10 10 11 14 19 24 27 28 28 30 31 30 28 23 18 15 14 15 15 16 16 16 15 13 8 8 8 8 7 6 4 2 -2 -3 -3 -2 0 10 18 24 28 26 23 19 15 14 13 12 7 5 5 4 2 3 6 10 13 14 16 17 18 19 18 18 18 18 17 16 14 11 7 4 2 1 1 1 1 1 2 2 3 4 5 6 6 6 7 7 7 7 6 6 6
5 5 5 6 7 8 10 10 10 10 10 10 10 12 14 19 24 26 27 29 31 32 31 28 22 18 16 18 20 19 18 16 16 16 14 11 10 10 11 8 6 3 -2 -6 -6 -4 -3 2 9 16 22 25 25 22 18 17 18 19 16 14 11 8 5 2 3 6 10 14 15 13 9 7 8 9 11 14 15 16 16 14 12 8 5 3 2 2 1 1 1 2 2 3 4 4 5 6 6 7 7 7 7 7 7
6 6 5 6 6 7 10 11 11 11 10 10 10 10 11 15 19 23 26 28 30 32 34 31 27 22 17 20 24 28 28 22 18 16 16 14 12 12 15 13 11 8 4 -1 -4 -6 -8 -6 1 9 17 22 24 23 18 13 11 13 16 22 22 19 14 10 7 6 8 12 13 11 3 -4 -7 -7 -4 0 5 9 13 14 14 12 9 6 4 3 2 1 0 0 0 1 2 3 4 4 5 5 6 6 7 7 7
7 6 5 5 5 7 9 10 11 11 11 10 10 10 10 12 15 19 23 25 28 32 36 34 31 26 18 15 20 29 35 32 25 19 16 16 17 16 14 16 18 18 13 6 2 -0 -3 -6 -4 2 12 19 23 24 22 14 8 6 8 13 19 25 26 21 16 12 10 11 13 13 8 -2 -9 -14 -15 -14 -10 -6 -0 5 9 11 11 10 7 5 3 1 0 -1 -1 -1 -0 1 2 2 3 4 4 4 5 5 5
7 6 6 6 6 6 7 10 11 12 12 11 10 10 10 10 12 15 20 22 26 30 35 37 36 30 20 8 10 20 29 32 30 26 20 19 21 23 20 15 16 20 23 21 17 13 8 1 -1 1 6 14 20 25 26 21 15 7 -1 -6 3 17 25 23 21 18 15 13 14 15 15 9 3 -4 -10 -13 -15 -15 -13 -9 -3 2 7 9 9 8 6 3 2 0 -1 -1 -1 -1 -0 1 2 2 2 2 3 3 4
7 7 7 6 6 6 7 9 11 12 12 12 11 10 10 9 10 12 16 19 23 26 32 38 40 35 24 4 0 8 22 26 29 30 29 25 23 24 26 15 9 10 20 27 32 32 24 13 6 3 2 8 15 21 26 27 23 16 6 -2 -1 4 8 13 16 18 18 17 16 15 15 14 13 9 5 1 -3 -8 -12 -13 -11 -7 -2 3 6 7 7 6 4 3 1 0 -1 -1 -1 -0 0 1 1 2 2 2 2
8 7 7 6 6 6 7 8 10 12 13 13 12 11 10 9 9 10 12 16 19 23 29 37 42 41 30 4 -8 -5 13 21 25 28 33 32 27 21 18 17 13 9 11 20 25 27 29 22 14 7 3 3 7 12 18 23 27 27 23 12 2 -4 -5 3 9 14 16 17 18 16 14 14 14 14 14 12 10 7 2 -2 -6 -7 -7 -4 -0 3 5 6 6 5 4 3 2 0 -0 0 0 1 1 1 2 2 2
8 8 7 7 7 7 7 8 10 11 13 13 12 12 10 10 9 9 10 12 15 19 25 34 43 46 40 10 -10 -16 -4 13 21 25 28 34 31 21 8 10 10 8 4 9 14 18 21 22 20 14 7 2 1 2 7 12 19 24 29 22 10 -1 -5 -0 4 7 10 13 16 17 16 14 13 14 14 15 15 15 13 10 6 2 -2 -3 -3 -2 1 3 4 5 5 5 4 3 2 2 1 1 1 1 2 2 2
8 8 8 8 7 7 7 8 9 11 13 13 13 12 12 11 10 9 8 10 12 15 20 29 40 48 51 22 -5 -22 -21 -2 12 21 24 27 25 18 5 -0 -2 -1 -2 2 7 13 16 19 20 18 13 7 3 1 0 3 8 14 22 21 14 6 2 2 2 3 4 8 13 16 16 14 13 13 13 14 14 15 16 16 14 12 8 4 0 -2 -2 -1 0 2 4 4 5 5 4 3 3 2 2 2 2 2 2
8 8 8 8 8 8 7 8 9 10 12 13 14 13 13 12 10 9 8 8 10 12 16 23 34 46 56 38 8 -18 -28 -18 -3 11 18 21 20 16 8 -3 -9 -9 -6 -2 2 7 11 14 16 17 15 10 6 4 4 3 4 7 13 17 16 13 10 7 5 3 2 4 9 13 16 14 13 12 12 13 14 14 16 16 17 16 14 11 7 3 -0 -2 -2 -1 0 2 3 4 5 5 4 4 3 2 2 1 1
Height
5800 5802 5803 5805 5807 5808 5810 5813 5814 5815 5816 5818 5819 5821 5822 5823 5824 5826 5827 5828 5830 5831 5832 5834 5835 5837 5838 5839 5841 5843 5843 5845 5845 5846 5849 5849 5850 5851 5850 5851 5852 5853 5854 5855 5856 5857 5858 5860 5861 5862 5862 5864 5865 5866 5867 5868 5869 5870 5870 5871 5872 5873 5874 5876 5877 5878 5879 5880 5881 5882 5883 5884 5885 5886 5887 5888 5889 5890 5890 5891 5892 5893 5893 5894 5895 5896 5896 5897 5898 5898 5899 5900 5900 5901 5901 5902 5902 5902 5903 5903 5904 5904 5905
5798 5799 5801 5802 5804 5806 5807 5810 5812 5813 5813 5816 5817 5819 5820 5821 5822 5824 5825 5827 5828 5829 5831 5832 5833 5835 5837 5838 5839 5841 5842 5843 5844 5845 5845 5846 5848 5849 5849 5849 5850 5852 5852 5853 5854 5856 5857 5858 5859 5860 5861 5862 5863 5865 5866 5866 5867 5868 5869 5870 5871 5872 5873 5874 5875 5877 5878 5879 5880 5881 5882 5883 5884 5885 5886 5887 5887 5888 5889 5890 5891 5892 5892 5893 5894 5895 5895 5896 5897 5897 5898 5898 5899 5899 5900 5901 5901 5902 5902 5902 5903 5903 5904
5795 5797 5798 5800 5802 5803 5805 5807 5809 5811 5812 5814 5815 5817 5818 5820 5821 5822 5823 5825 5826 5827 5829 5830 5832 5833 5835 5837 5838 5839 5840 5842 5843 5844 5844 5845 5847 5849 5848 5847 5848 5850 5851 5852 5853 5854 5855 5857 5858 5859 5860 5861 5862 5863 5864 5865 5866 5867 5868 5869 5870 5871 5872 5873 5874 5875 5876 5877 5878 5880 5881 5882 5883 5884 5885 5886 5887 5887 5888 5889 5890 5891 5892 5892 5893 5893 5894 5895 5896 5896 5897 5897 5898 5898 5899 5900 5900 5901 5901 5902 5902 5902 5903
5793 5794 5796 5797 5799 5801 5803 5805 5807 5809 5810 5812 5813 5815 5817 5818 5819 5820 5821 5822 5824 5825 5827 5828 5830 5832 5833 5834 5836 5837 5838 5839 5841 5842 5843 5845 5846 5847 5848 5847 5847 5848 5849 5850 5851 5852 5854 5855 5856 5857 5858 5859 5861 5862 5862 5863 5864 5865 5866 5867 5868 5869 5870 5872 5873 5874 5875 5876 5877 5878 5879 5880 5881 5882 5883 5884 5885 5886 5887 5888 5889 5890 5890 5891 5892 5892 5893 5894 5895 5895 5896 5897 5897 5897 5898 5899 5899 5900 5900 5901 5901 5902 5902
5790 5792 5793 5795 5797 5799 5802 5803 5805 5807 5808 5810 5812 5813 5815 5816 5817 5818 5819 5821 5822 5823 5825 5826 5828 5830 5831 5832 5834 5835 5836 5837 5839 5841 5842 5843 5844 5845 5847 5845 5845 5847 5848 5849 5850 5851 5852 5853 5855 5856 5857 5858 5859 5860 5861 5862 5863 5864 5865 5866 5867 5868 5869 5870 5871 5872 5873 5875 5876 5877 5878 5879 5880 5881 5882 5883 5884 5885 5886 5887 5887 5888 5889 5890 5891 5892 5892 5893 5893 5894 5895 5895 5896 5897 5897 5898 5898 5899 5899 5900 5900 5901 5901
5788 5790 5791 5793 5795 5797 5799 5801 5802 5804 5807 5808 5810 5811 5813 5814 5816 5817 5817 5819 5820 5821 5822 5824 5826 5828 5829 5831 5832 5833 5835 5836 5837 5839 5840 5841 5842 5844 5846 5846 5845 5845 5846 5847 5848 5849 5851 5852 5853 5854 5855 5857 5858 5859 5860 5861 5862 5862 5864 5865 5866 5867 5868 5869 5870 5871 5872 5873 5874 5875 5877 5877 5879 5880 5881 5882 5882 5883 5884 5885 5886 5887 5888 5889 5890 5890 5891 5892 5892 5893 5894 5894 5895 5896 5896 5897 5897 5898 5898 5899 5899 5900 5900
5785 5787 5789 5791 5792 5794 5796 5798 5799 5801 5803 5806 5807 5809 5811 5812 5814 5815 5816 5817 5818 5819 5820 5822 5824 5826 5827 5830 5831 5832 5833 5834 5835 5837 5839 5840 5841 5843 5845 5845 5843 5843 5844 5845 5847 5848 5849 5850 5852 5852 5854 5855 5856 5857 5858 5859 5860 5861 5862 5863 5864 5865 5866 5867 5868 5869 5871 5872 5873 5874 5875 5876 5877 5878 5879 5880 5881 5882 5883 5884 5885 5886 5887 5887 5888 5889 5890 5891 5891 5892 5892 5893 5894 5894 5895 5896 5896 5897 5897 5898 5898 5899 5899
5782 5784 5786 5788 5790 5792 5793 5795 5796 5797 5799 5802 5805 5806 5808 5810 5812 5813 5814 5815 5816 5817 5819 5820 5821 5823 5826 5828 5829 5830 5831 5832 5834 5835 5837 5839 5840 5841 5842 5843 5842 5842 5842 5843 5845 5846 5847 5849 5850 5851 5852 5853 5854 5856 5857 5857 5858 5860 5861 5862 5862 5863 5865 5866 5867 5868 5869 5870 5871 5872 5873 5874 5876 5877 5878 5879 5880 5881 5882 5882 5883 5884 5885 5886 5887 5888 5889 5889 5890 5891 5892 5892 5893 5893 5894 5895 5895 5896 5896 5897 5897 5897 5898
5779 5781 5783 5785 5787 5789 5791 5792 5793 5794 5796 5799 5802 5804 5806 5808 5809 5811 5812 5813 5814 5815 5817 5817 5819 5821 5823 5825 5827 5827 5829 5830 5832 5834 5836 5839 5844 5844 5837 5840 5842 5842 5840 5841 5843 5844 5846 5847 5848 5849 5850 5852 5853 5854 5855 5856 5857 5858 5859 5860 5861 5862 5863 5864 5865 5866 5867 5868 5870 5871 5872 5873 5874 5875 5876 5877 5878 5879 5880 5881 5882 5883 5884 5885 5886 5887 5887 5888 5889 5889 5890 5891 5892 5892 5893 5893 5894 5895 5895 5896 5896 5897 5897
5777 5778 5780 5782 5784 5786 5788 5789 5791 5792 5793 5796 5798 5801 5803 5805 5807 5809 5810 5811 5812 5813 5814 5815 5817 5818 5821 5823 5824 5826 5827 5828 5830 5832 5835 5837 5846 5848 5836 5835 5838 5840 5839 5840 5841 5842 5844 5845 5846 5847 5848 5850 5851 5852 5853 5855 5856 5857 5858 5859 5860 5860 5862 5863 5864 5865 5866 5867 5868 5869 5870 5871 5872 5873 5874 5875 5877 5877 5878 5879 5880 5882 5882 5883 5884 5885 5886 5887 5887 5888 5889 5890 5890 5891 5892 5892 5893 5893 5894 5894 5895 5896 5896
5774 5775 5777 5780 5782 5783 5785 5787 5788 5789 5791 5792 5795 5798 5800 5802 5804 5806 5807 5808 5809 5810 5812 5813 5815 5816 5818 5820 5822 5824 5825 5826 5828 5829 5832 5832 5841 5845 5835 5833 5836 5839 5839 5838 5839 5840 5842 5843 5845 5846 5847 5848 5849 5850 5852 5853 5854 5856 5857 5857 5858 5859 5860 5861 5862 5863 5864 5865 5866 5867 5868 5870 5871 5872 5872 5874 5875 5876 5877 5877 5878 5880 5881 5882 5882 5883 5884 5885 5886 5887 5887 5888 5889 5890 5890 5891 5892 5892 5893 5893 5894 5894 5895
5771 5772 5775 5777 5779 5780 5782 5783 5785 5787 5788 5790 5792 5794 5797 5799 5801 5803 5805 5806 5807 5808 5809 5811 5812 5814 5816 5817 5820 5822 5823 5824 5826 5827 5829 5830 5833 5835 5833 5832 5834 5836 5837 5838 5838 5838 5840 5842 5843 5844 5845 5846 5847 5849 5850 5852 5853 5854 5855 5856 5857 5857 5858 5860 5861 5862 5862 5863 5865 5866 5867 5868 5869 5870 5871 5872 5873 5874 5875 5876 5877 5878 5879 5880 5881 5882 5883 5884 5885 5885 5886 5887 5887 5888 5889 5890 5890 5891 5892 5892 5892 5893 5894
5768 5770 5772 5774 5776 5777 5779 5781 5783 5785 5786 5787 5789 5791 5793 5796 5798 5800 5802 5803 5804 5805 5807 5808 5810 5812 5813 5815 5817 5819 5821 5822 5824 5825 5826 5828 5828 5829 5830 5832 5834 5835 5835 5837 5837 5836 5838 5840 5841 5842 5843 5845 5846 5847 5849 5850 5851 5853 5854 5855 5855 5856 5857 5858 5859 5860 5861 5862 5863 5864 5865 5866 5867 5868 5869 5870 5871 5872 5873 5874 5875 5876 5877 5879 5879 5880 5881 5882 5883 5884 5885 5885 5886 5887 5887 5888 5889 5889 5890 5891 5891 5892 5892
5766 5767 5769 5771 5773 5775 5776 5778 5780 5782 5784 5785 5786 5788 5790 5791 5794 5796 5798 5800 5801 5802 5804 5806 5807 5809 5810 5812 5814 5817 5819 5821 5822 5823 5825 5826 5827 5828 5829 5831 5832 5833 5834 5835 5835 5835 5836 5838 5839 5841 5842 5843 5844 5846 5847 5848 5850 5851 5852 5853 5853 5854 5855 5856 5857 5858 5859 5860 5861 5862 5863 5864 5865 5866 5867 5868 5869 5871 5872 5872 5873 5875 5876 5877 5878 5878 5879 5881 5882 5882 5883 5884 5885 5885 5886 5887 5887 5888 5889 5889 5890 5890 5891
5764 5765 5766 5768 5770 5772 5773 5775 5777 5779 5781 5782 5783 5785 5787 5788 5790 5792 5795 5796 5797 5799 5801 5803 5805 5807 5807 5809 5812 5814 5816 5818 5820 5821 5822 5824 5825 5826 5827 5829 5831 5832 5832 5833 5834 5834 5834 5836 5837 5839 5840 5841 5843 5844 5845 5847 5848 5850 5851 5852 5852 5852 5853 5855 5856 5857 5857 5858 5859 5860 5862 5862 5864 5865 5866 5867 5868 5869 5870 5871 5872 5873 5874 5875 5876 5877 5878 5879 5880 5881 5882 5882 5883 5884 5885 5885 5886 5887 5887 5888 5888 5889 5890
5761 5762 5763 5765 5767 5769 5771 5772 5774 5776 5777 5779 5781 5782 5784 5787 5787 5789 5792 5793 5794 5796 5798 5800 5802 5804 5805 5807 5809 5811 5814 5816 5817 5819 5820 5821 5822 5823 5825 5826 5828 5830 5831 5830 5830 5831 5831 5832 5834 5836 5838 5839 5841 5842 5843 5845 5846 5848 5849 5850 5850 5850 5852 5853 5854 5855 5856 5857 5857 5859 5860 5861 5862 5863 5864 5865 5866 5867 5868 5869 5870 5871 5872 5873 5875 5876 5877 5877 5878 5879 5880 5881 5882 5882 5883 5884 5884 5885 5886 5886 5887 5887 5888
5758 5759 5761 5762 5765 5767 5768 5769 5771 5772 5774 5776 5777 5779 5781 5784 5785 5787 5788 5791 5792 5792 5794 5797 5799 5801 5802 5803 5806 5808 5811 5813 5815 5817 5818 5819 5820 5821 5822 5824 5825 5828 5832 5833 5832 5829 5827 5827 5829 5832 5835 5837 5838 5840 5842 5843 5844 5846 5847 5848 5848 5849 5850 5851 5852 5853 5854 5855 5856 5857 5858 5859 5860 5861 5862 5863 5864 5865 5867 5867 5868 5870 5871 5872 5872 5874 5875 5876 5877 5877 5878 5879 5880 5881 5882 5882 5883 5884 5884 5885 5885 5886 5887
5756 5757 5758 5760 5762 5763 5765 5766 5768 5769 5771 5773 5775 5777 5778 5780 5783 5784 5785 5787 5789 5790 5792 5794 5797 5798 5799 5801 5802 5805 5808 5810 5812 5814 5815 5817 5818 5819 5820 5822 5823 5824 5827 5833 5833 5829 5827 5825 5825 5828 5831 5833 5836 5837 5839 5841 5842 5844 5845 5846 5847 5847 5847 5849 5850 5851 5852 5853 5854 5855 5856 5857 5858 5859 5860 5862 5862 5864 5865 5866 5867 5868 5869 5870 5871 5872 5873 5874 5875 5876 5877 5878 5879 5879 5880 5881 5882 5882 5883 5883 5884 5884 5885
5753 5754 5755 5756 5758 5760 5762 5763 5765 5767 5768 5770 5772 5773 5776 5778 5780 5782 5783 5783 5786 5788 5789 5791 5793 5796 5797 5799 5800 5802 5805 5807 5809 5811 5813 5814 5815 5817 5818 5819 5821 5820 5819 5822 5826 5828 5826 5825 5823 5824 5827 5830 5832 5835 5837 5838 5840 5842 5843 5844 5844 5845 5845 5847 5848 5849 5850 5851 5852 5853 5854 5855 5856 5857 5859 5860 5861 5862 5863 5864 5865 5866 5867 5868 5869 5870 5871 5872 5873 5874 5875 5876 5877 5878 5879 5879 5880 5881 5881 5882 5882 5883 5883
5750 5751 5752 5753 5755 5757 5759 5761 5762 5764 5765 5767 5768 5770 5772 5775 5777 5779 5781 5781 5782 5785 5787 5789 5790 5793 5795 5797 5797 5798 5802 5804 5806 5808 5810 5811 5813 5814 5815 5817 5818 5817 5815 5814 5817 5823 5824 5824 5823 5823 5824 5827 5829 5832 5834 5836 5837 5839 5841 5842 5842 5842 5843 5844 5846 5847 5848 5849 5850 5851 5852 5853 5854 5856 5857 5858 5859 5860 5861 5862 5863 5864 5866 5867 5867 5868 5869 5871 5872 5873 5873 5874 5875 5876 5877 5878 5878 5879 5880 5880 5881 5881 5882
5747 5748 5749 5750 5751 5753 5755 5757 5759 5761 5762 5764 5765 5767 5769 5772 5774 5776 5778 5779 5780 5782 5784 5787 5788 5790 5792 5794 5794 5795 5798 5800 5802 5804 5806 5808 5810 5811 5813 5814 5815 5815 5813 5810 5812 5817 5822 5822 5823 5824 5823 5823 5825 5828 5831 5833 5835 5836 5838 5839 5840 5840 5841 5842 5843 5845 5846 5847 5848 5849 5850 5851 5852 5854 5855 5856 5857 5858 5860 5861 5862 5863 5864 5865 5866 5867 5868 5869 5870 5871 5872 5873 5874 5875 5876 5876 5877 5877 5878 5879 5879 5880 5880
5744 5745 5746 5747 5748 5750 5752 5754 5756 5757 5759 5761 5762 5764 5766 5769 5771 5773 5775 5777 5778 5779 5781 5784 5786 5787 5789 5790 5791 5792 5794 5797 5799 5801 5803 5805 5807 5808 5810 5812 5813 5813 5812 5810 5809 5812 5819 5822 5822 5822 5822 5821 5822 5825 5827 5830 5832 5833 5835 5836 5837 5837 5838 5839 5841 5842 5843 5844 5846 5847 5848 5849 5850 5852 5853 5854 5856 5857 5858 5859 5860 5861 5862 5863 5864 5865 5866 5867 5868 5869 5871 5872 5872 5873 5874 5875 5876 5876 5877 5877 5878 5878 5879
5742 5743 5743 5744 5745 5746 5748 5750 5752 5754 5756 5757 5759 5761 5762 5765 5767 5770 5772 5775 5776 5777 5778 5780 5782 5784 5785 5787 5788 5789 5791 5793 5795 5797 5799 5801 5803 5805 5807 5809 5810 5811 5811 5810 5808 5809 5812 5817 5819 5819 5819 5818 5819 5822 5825 5828 5830 5831 5832 5833 5834 5835 5835 5837 5838 5839 5841 5842 5843 5844 5846 5847 5848 5850 5851 5852 5853 5855 5856 5857 5858 5859 5860 5862 5862 5863 5864 5866 5867 5867 5869 5870 5871 5871 5872 5873 5874 5875 5875 5876 5877 5877 5877
5739 5740 5741 5742 5742 5743 5744 5747 5749 5751 5752 5754 5756 5758 5759 5762 5764 5767 5770 5772 5774 5775 5776 5777 5779 5781 5782 5784 5786 5787 5789 5790 5792 5794 5796 5798 5800 5802 5804 5806 5807 5809 5810 5809 5809 5808 5808 5811 5814 5815 5816 5815 5816 5819 5822 5825 5828 5830 5831 5831 5832 5832 5832 5834 5835 5837 5838 5839 5841 5842 5843 5845 5846 5847 5849 5850 5852 5853 5854 5855 5856 5857 5858 5859 5861 5862 5863 5864 5865 5866 5867 5868 5869 5870 5870 5871 5872 5873 5874 5874 5875 5876 5876
5737 5737 5738 5739 5740 5740 5741 5743 5745 5747 5749 5751 5753 5755 5757 5758 5761 5764 5767 5769 5771 5772 5773 5775 5776 5778 5780 5782 5784 5786 5787 5787 5789 5791 5793 5795 5797 5799 5801 5803 5805 5806 5807 5808 5808 5809 5809 5809 5810 5812 5813 5812 5814 5816 5819 5822 5825 5827 5829 5829 5829 5829 5830 5831 5832 5834 5836 5837 5838 5840 5841 5842 5844 5845 5847 5848 5849 5851 5852 5853 5854 5855 5856 5857 5859 5860 5861 5862 5863 5864 5865 5866 5867 5869 5869 5870 5871 5871 5872 5873 5873 5874 5875
5734 5735 5736 5737 5737 5737 5738 5740 5742 5743 5745 5747 5750 5752 5753 5756 5758 5760 5763 5766 5768 5769 5771 5772 5773 5775 5777 5779 5781 5783 5784 5785 5786 5788 5790 5792 5794 5796 5797 5800 5802 5803 5805 5806 5807 5807 5808 5808 5808 5810 5811 5811 5812 5814 5817 5819 5822 5824 5826 5828 5827 5827 5827 5828 5829 5831 5832 5834 5836 5837 5838 5840 5841 5842 5844 5845 5847 5848 5849 5851 5852 5853 5854 5855 5857 5858 5859 5860 5861 5862 5863 5864 5865 5867 5867 5868 5869 5870 5870 5871 5872 5872 5873
5731 5732 5733 5734 5734 5735 5736 5737 5738 5740 5742 5744 5746 5748 5750 5752 5754 5757 5759 5762 5764 5767 5767 5769 5770 5772 5774 5776 5778 5780 5781 5782 5783 5784 5787 5789 5791 5793 5795 5797 5798 5800 5802 5803 5804 5805 5807 5806 5806 5807 5808 5809 5810 5812 5814 5817 5819 5821 5822 5825 5826 5825 5825 5825 5826 5828 5830 5831 5833 5836 5839 5840 5840 5839 5841 5843 5844 5846 5847 5848 5849 5850 5852 5853 5854 5856 5857 5858 5859 5860 5861 5862 5863 5864 5865 5866 5867 5867 5868 5869 5870 5870 5871
5728 5729 5730 5731 5732 5732 5733 5734 5735 5736 5738 5740 5742 5745 5747 5749 5751 5753 5756 5758 5761 5763 5764 5766 5767 5769 5770 5773 5775 5777 5778 5779 5780 5782 5783 5786 5788 5790 5792 5793 5795 5797 5799 5800 5801 5803 5804 5803 5804 5805 5806 5807 5808 5810 5810 5813 5816 5817 5819 5821 5822 5823 5822 5822 5823 5824 5826 5828 5831 5833 5835 5837 5837 5837 5841 5841 5842 5843 5844 5846 5847 5848 5849 5851 5852 5853 5854 5856 5857 5858 5859 5860 5861 5862 5863 5864 5865 5865 5866 5867 5868 5869 5869
5725 5726 5727 5728 5729 5729 5730 5731 5732 5733 5734 5736 5738 5741 5743 5745 5747 5750 5752 5755 5757 5759 5761 5763 5764 5765 5767 5770 5772 5773 5775 5776 5777 5779 5781 5783 5785 5787 5788 5790 5792 5794 5796 5797 5798 5799 5800 5800 5801 5803 5805 5805 5805 5807 5807 5810 5812 5814 5816 5817 5818 5819 5820 5820 5820 5822 5823 5826 5827 5830 5832 5835 5836 5836 5837 5839 5840 5841 5842 5843 5844 5845 5847 5848 5849 5851 5852 5853 5855 5856 5857 5858 5859 5860 5861 5862 5863 5864 5864 5865 5866 5867 5867
5722 5723 5724 5725 5726 5726 5727 5728 5729 5730 5731 5733 5735 5737 5739 5741 5744 5746 5749 5751 5753 5755 5758 5759 5761 5762 5764 5766 5768 5770 5771 5772 5774 5776 5778 5780 5782 5783 5785 5787 5789 5790 5792 5794 5795 5796 5797 5798 5800 5801 5802 5802 5802 5803 5805 5806 5809 5811 5812 5812 5814 5815 5817 5817 5818 5819 5821 5823 5825 5828 5832 5833 5834 5835 5835 5835 5836 5838 5839 5840 5841 5843 5844 5846 5847 5848 5850 5851 5852 5853 5854 5856 5857 5857 5859 5860 5861 5862 5862 5863 5864 5864 5866
5719 5720 5721 5722 5722 5723 5724 5725 5726 5727 5728 5730 5732 5733 5735 5737 5740 5742 5745 5747 5750 5752 5754 5756 5757 5758 5760 5762 5764 5766 5767 5769 5771 5772 5775 5777 5778 5780 5782 5784 5786 5787 5789 5790 5792 5793 5794 5796 5797 5798 5800 5800 5801 5802 5803 5803 5805 5807 5808 5808 5809 5811 5813 5814 5815 5816 5818 5820 5822 5825 5829 5829 5831 5833 5833 5832 5832 5834 5836 5837 5839 5840 5842 5843 5844 5846 5847 5848 5850 5851 5852 5853 5854 5855 5856 5857 5858 5859 5860 5861 5862 5864 5864
5716 5717 5717 5718 5719 5720 5720 5722 5722 5724 5725 5727 5728 5730 5732 5734 5736 5738 5741 5744 5746 5748 5750 5752 5754 5755 5756 5758 5760 5762 5763 5765 5767 5769 5771 5773 5774 5776 5778 5780 5782 5784 5785 5787 5789 5790 5791 5792 5794 5796 5797 5798 5799 5800 5802 5801 5801 5803 5804 5805 5806 5807 5810 5811 5812 5813 5816 5818 5820 5822 5825 5824 5827 5830 5830 5832 5832 5832 5833 5835 5836 5837 5839 5840 5842 5843 5845 5846 5847 5848 5849 5850 5852 5852 5854 5855 5856 5857 5858 5859 5860 5861 5862
5713 5713 5713 5714 5715 5716 5717 5718 5719 5720 5722 5723 5725 5727 5729 5731 5733 5735 5737 5740 5742 5744 5746 5747 5750 5752 5753 5755 5757 5758 5759 5761 5763 5765 5767 5769 5771 5772 5774 5777 5779 5781 5782 5784 5786 5787 5788 5790 5791 5792 5794 5795 5796 5797 5799 5798 5798 5800 5802 5803 5803 5804 5807 5808 5811 5812 5813 5815 5817 5819 5821 5822 5823 5825 5826 5828 5830 5831 5832 5834 5835 5835 5837 5838 5839 5841 5842 5843 5844 5846 5847 5848 5849 5850 5851 5852 5854 5855 5856 5857 5857 5859 5859
5710 5710 5710 5711 5712 5712 5713 5715 5715 5716 5718 5720 5721 5723 5725 5727 5729 5731 5733 5735 5737 5740 5742 5743 5745 5748 5751 5752 5753 5755 5756 5758 5760 5762 5764 5766 5767 5768 5771 5773 5775 5777 5779 5781 5782 5784 5785 5786 5788 5789 5791 5792 5794 5795 5795 5796 5797 5798 5800 5802 5803 5802 5803 5805 5807 5809 5810 5812 5814 5816 5818 5820 5821 5822 5823 5826 5827 5829 5831 5831 5832 5833 5834 5836 5837 5838 5839 5841 5842 5843 5844 5845 5847 5847 5849 5850 5851 5852 5853 5854 5855 5856 5857
5707 5707 5707 5707 5708 5709 5710 5711 5711 5712 5714 5716 5717 5719 5721 5723 5725 5727 5730 5732 5734 5736 5738 5739 5741 5743 5747 5749 5750 5751 5753 5754 5756 5758 5760 5762 5763 5764 5767 5769 5771 5773 5775 5777 5779 5781 5782 5783 5784 5786 5788 5790 5791 5792 5793 5794 5795 5796 5798 5800 5800 5800 5799 5801 5803 5805 5807 5809 5812 5813 5815 5817 5818 5819 5821 5825 5826 5826 5827 5829 5830 5832 5832 5833 5834 5836 5837 5838 5839 5841 5842 5843 5844 5845 5846 5847 5849 5850 5851 5852 5853 5854 5855
5705 5704 5704 5704 5705 5705 5706 5706 5707 5709 5710 5712 5713 5715 5717 5719 5721 5724 5726 5728 5730 5732 5733 5735 5737 5739 5742 5745 5747 5747 5749 5751 5753 5755 5757 5758 5760 5761 5762 5765 5767 5769 5772 5774 5776 5777 5779 5780 5781 5783 5785 5787 5788 5790 5791 5792 5792 5793 5795 5796 5797 5798 5798 5798 5799 5801 5803 5806 5808 5811 5812 5814 5815 5817 5818 5821 5822 5822 5823 5826 5828 5830 5830 5831 5832 5833 5834 5836 5837 5838 5839 5841 5842 5843 5844 5845 5846 5847 5848 5849 5850 5851 5852
5702 5702 5702 5701 5701 5702 5702 5703 5704 5705 5706 5707 5709 5711 5712 5715 5717 5719 5722 5724 5726 5728 5729 5731 5733 5735 5737 5741 5743 5744 5745 5747 5750 5752 5753 5755 5756 5757 5759 5761 5763 5765 5767 5770 5772 5774 5775 5777 5778 5780 5782 5783 5785 5787 5787 5788 5789 5790 5791 5792 5794 5796 5797 5797 5797 5799 5801 5803 5805 5807 5810 5811 5813 5814 5816 5817 5818 5819 5820 5822 5824 5826 5828 5829 5830 5831 5832 5833 5834 5836 5837 5838 5839 5840 5842 5842 5844 5845 5846 5847 5848 5849 5850
5700 5699 5699 5698 5698 5698 5699 5699 5700 5701 5702 5703 5705 5706 5708 5710 5712 5715 5717 5720 5722 5724 5725 5727 5729 5731 5732 5736 5740 5742 5741 5743 5746 5748 5750 5751 5752 5754 5755 5756 5758 5761 5764 5766 5768 5771 5772 5773 5775 5777 5778 5780 5782 5784 5785 5786 5787 5787 5789 5789 5791 5792 5794 5794 5795 5796 5797 5799 5802 5804 5807 5808 5810 5811 5813 5814 5816 5817 5819 5821 5822 5824 5825 5827 5828 5830 5831 5831 5832 5833 5834 5835 5837 5838 5839 5840 5841 5842 5843 5844 5846 5847 5847
5697 5697 5697 5696 5696 5695 5695 5696 5696 5697 5698 5699 5701 5702 5703 5705 5707 5710 5712 5716 5717 5719 5721 5723 5725 5726 5728 5732 5736 5738 5738 5739 5741 5744 5746 5748 5749 5750 5751 5752 5754 5757 5759 5762 5764 5767 5768 5770 5772 5773 5775 5777 5779 5780 5782 5783 5784 5785 5786 5787 5788 5788 5789 5790 5791 5792 5793 5796 5798 5801 5803 5805 5807 5809 5810 5812 5813 5815 5816 5819 5821 5822 5823 5823 5825 5827 5828 5829 5830 5831 5832 5833 5834 5835 5837 5838 5839 5840 5841 5842 5843 5844 5845
5695 5694 5694 5693 5693 5692 5692 5692 5693 5694 5694 5695 5697 5697 5699 5701 5703 5706 5708 5711 5713 5715 5717 5718 5720 5722 5724 5726 5730 5734 5735 5735 5737 5740 5742 5744 5745 5746 5748 5749 5750 5752 5755 5758 5760 5762 5764 5766 5768 5770 5772 5774 5776 5777 5778 5780 5781 5782 5784 5784 5785 5786 5786 5786 5786 5787 5790 5792 5795 5798 5800 5802 5805 5806 5808 5809 5811 5812 5813 5815 5817 5817 5820 5820 5821 5823 5825 5827 5829 5830 5830 5830 5831 5833 5834 5835 5837 5838 5839 5840 5841 5842 5843
5692 5692 5691 5691 5690 5690 5689 5690 5690 5690 5691 5692 5692 5693 5695 5697 5699 5701 5703 5705 5708 5710 5712 5714 5716 5718 5720 5721 5724 5728 5732 5732 5733 5735 5738 5740 5741 5742 5744 5745 5746 5747 5750 5753 5756 5758 5761 5763 5764 5766 5768 5770 5772 5774 5775 5776 5778 5780 5781 5782 5782 5783 5783 5782 5783 5785 5788 5791 5793 5795 5797 5800 5802 5804 5805 5807 5808 5809 5811 5812 5813 5814 5816 5817 5818 5820 5822 5824 5826 5827 5829 5829 5829 5831 5832 5833 5834 5835 5837 5837 5839 5840 5841
5690 5689 5689 5688 5687 5687 5687 5687 5686 5686 5687 5687 5688 5689 5691 5692 5694 5696 5698 5701 5703 5705 5708 5710 5712 5714 5715 5717 5719 5722 5726 5729 5730 5731 5734 5736 5737 5739 5740 5741 5742 5743 5746 5749 5752 5754 5757 5759 5761 5763 5765 5766 5768 5770 5771 5773 5775 5777 5778 5778 5780 5781 5782 5781 5781 5784 5787 5789 5792 5794 5796 5797 5800 5802 5803 5804 5806 5807 5808 5809 5810 5812 5814 5815 5816 5817 5819 5821 5822 5824 5826 5827 5828 5829 5829 5830 5832 5833 5834 5835 5836 5837 5838
5687 5686 5686 5685 5685 5684 5684 5684 5683 5683 5684 5684 5685 5686 5687 5688 5689 5691 5693 5696 5698 5701 5703 5706 5708 5711 5713 5714 5715 5717 5720 5724 5727 5728 5730 5732 5733 5735 5736 5737 5739 5740 5742 5744 5747 5750 5753 5755 5757 5760 5761 5762 5764 5766 5769 5770 5772 5773 5774 5775 5777 5779 5781 5781 5782 5784 5785 5787 5790 5792 5794 5795 5797 5799 5800 5802 5803 5804 5806 5807 5807 5809 5812 5813 5814 5815 5816 5818 5819 5821 5823 5824 5826 5827 5828 5829 5830 5831 5832 5832 5834 5835 5836
5684 5684 5683 5682 5682 5682 5681 5681 5681 5680 5680 5680 5681 5682 5683 5683 5685 5687 5689 5691 5693 5696 5698 5701 5704 5707 5709 5710 5711 5712 5715 5719 5723 5726 5726 5728 5729 5731 5732 5733 5735 5737 5738 5740 5743 5746 5748 5750 5753 5755 5757 5758 5760 5762 5765 5767 5768 5769 5772 5774 5775 5776 5778 5779 5781 5782 5783 5785 5787 5789 5792 5793 5794 5796 5797 5799 5800 5801 5803 5804 5805 5807 5809 5809 5810 5812 5814 5815 5817 5818 5820 5821 5823 5825 5826 5827 5828 5829 5829 5830 5831 5832 5833
5681 5681 5680 5680 5679 5679 5678 5678 5678 5677 5677 5677 5677 5678 5679 5679 5681 5682 5684 5686 5689 5692 5694 5695 5698 5701 5703 5705 5707 5708 5711 5714 5719 5723 5724 5724 5725 5726 5728 5730 5731 5733 5734 5736 5738 5741 5743 5745 5747 5750 5752 5754 5756 5758 5760 5762 5764 5767 5771 5774 5774 5773 5774 5775 5776 5778 5779 5782 5783 5786 5790 5791 5791 5792 5795 5797 5797 5798 5799 5801 5802 5804 5806 5806 5807 5809 5811 5812 5814 5816 5817 5818 5820 5822 5823 5824 5825 5826 5827 5828 5829 5830 5831
5678 5678 5677 5677 5676 5676 5675 5675 5675 5675 5674 5674 5674 5674 5675 5676 5677 5678 5679 5681 5684 5687 5688 5690 5692 5695 5697 5700 5701 5703 5707 5709 5714 5718 5722 5722 5721 5722 5724 5726 5727 5729 5731 5732 5734 5736 5738 5740 5742 5745 5747 5750 5752 5754 5756 5757 5759 5763 5768 5772 5774 5773 5772 5770 5771 5773 5776 5778 5780 5783 5787 5788 5788 5789 5792 5793 5794 5795 5796 5797 5799 5800 5802 5802 5804 5806 5808 5810 5812 5813 5815 5816 5817 5819 5821 5822 5823 5824 5824 5825 5826 5827 5829
5675 5675 5674 5673 5673 5672 5672 5672 5672 5672 5671 5671 5671 5672 5672 5672 5673 5674 5675 5677 5679 5681 5682 5685 5688 5691 5693 5695 5697 5700 5702 5705 5708 5712 5717 5718 5718 5718 5719 5721 5723 5725 5727 5728 5730 5732 5733 5735 5737 5740 5743 5745 5748 5750 5752 5753 5754 5757 5761 5766 5769 5771 5770 5765 5766 5769 5772 5774 5777 5779 5782 5784 5785 5786 5788 5789 5790 5791 5792 5794 5795 5797 5798 5800 5801 5803 5805 5807 5809 5810 5812 5813 5814 5816 5818 5819 5821 5822 5822 5823 5823 5825 5827
5672 5672 5671 5671 5670 5670 5669 5669 5669 5668 5668 5668 5668 5668 5668 5668 5669 5670 5671 5672 5674 5676 5677 5680 5683 5687 5690 5692 5693 5696 5698 5701 5703 5706 5709 5712 5714 5714 5715 5717 5719 5721 5723 5725 5726 5727 5728 5730 5732 5735 5738 5741 5743 5745 5747 5749 5750 5751 5753 5757 5761 5764 5765 5761 5761 5764 5767 5771 5773 5776 5778 5780 5782 5783 5784 5785 5786 5787 5789 5791 5792 5793 5795 5797 5798 5800 5802 5804 5806 5807 5809 5810 5812 5813 5814 5815 5817 5818 5819 5820 5821 5822 5824
5668 5668 5668 5667 5667 5667 5666 5666 5665 5665 5665 5665 5665 5665 5665 5665 5666 5666 5667 5667 5669 5671 5673 5676 5680 5683 5685 5688 5690 5691 5694 5696 5698 5700 5702 5707 5709 5710 5711 5713 5715 5717 5719 5721 5722 5723 5724 5726 5728 5730 5733 5736 5738 5741 5743 5744 5746 5747 5748 5750 5753 5755 5757 5757 5758 5761 5764 5767 5770 5772 5774 5776 5778 5779 5780 5782 5783 5784 5786 5787 5788 5790 5792 5794 5796 5797 5799 5801 5802 5804 5806 5807 5809 5810 5811 5812 5813 5815 5816 5817 5818 5818 5820
5665 5665 5665 5664 5664 5663 5663 5662 5662 5662 5662 5662 5662 5661 5661 5662 5662 5662 5662 5663 5665 5667 5669 5672 5675 5678 5681 5683 5685 5686 5689 5691 5693 5695 5697 5702 5705 5705 5707 5710 5711 5712 5714 5716 5718 5719 5720 5722 5723 5725 5728 5731 5734 5736 5738 5740 5742 5743 5744 5746 5747 5749 5751 5753 5755 5758 5761 5763 5766 5768 5770 5772 5773 5775 5777 5778 5779 5781 5782 5784 5786 5787 5789 5791 5792 5794 5796 5798 5799 5801 5803 5805 5806 5807 5809 5810 5811 5812 5813 5815 5815 5815 5816
5662 5661 5661 5661 5661 5660 5660 5659 5659 5659 5659 5658 5658 5658 5658 5658 5659 5659 5659 5660 5661 5662 5665 5667 5670 5672 5675 5678 5679 5682 5684 5686 5687 5689 5692 5697 5701 5702 5702 5705 5707 5708 5710 5712 5713 5715 5716 5717 5718 5721 5724 5727 5729 5732 5734 5736 5737 5739 5741 5742 5743 5745 5747 5749 5752 5754 5757 5759 5762 5764 5766 5768 5770 5771 5773 5774 5776 5777 5779 5781 5782 5784 5786 5788 5789 5791 5793 5795 5797 5798 5800 5802 5803 5805 5806 5807 5808 5809 5810 5811 5812 5813 5813
5658 5658 5657 5657 5657 5657 5657 5656 5656 5656 5655 5655 5655 5655 5655 5655 5655 5656 5656 5656 5657 5658 5660 5663 5665 5667 5670 5672 5675 5677 5679 5681 5682 5685 5687 5690 5695 5699 5699 5700 5702 5704 5706 5708 5709 5710 5712 5713 5715 5717 5720 5722 5725 5727 5729 5732 5734 5736 5737 5738 5740 5741 5742 5745 5747 5750 5752 5755 5758 5760 5762 5764 5766 5768 5769 5771 5772 5774 5776 5777 5779 5781 5783 5785 5786 5788 5790 5792 5793 5795 5797 5798 5800 5802 5803 5804 5805 5806 5807 5808 5809 5809 5810
5655 5654 5654 5654 5654 5654 5653 5653 5652 5652 5652 5652 5652 5652 5651 5651 5652 5652 5652 5652 5653 5654 5656 5658 5661 5663 5666 5669 5671 5672 5674 5676 5678 5680 5682 5684 5689 5694 5697 5697 5697 5699 5702 5704 5705 5705 5707 5709 5711 5713 5716 5718 5720 5723 5726 5729 5731 5732 5733 5734 5735 5736 5738 5740 5742 5745 5748 5751 5754 5757 5759 5761 5762 5764 5766 5768 5769 5771 5772 5774 5776 5778 5780 5782 5783 5785 5787 5789 5790 5792 5794 5795 5797 5798 5800 5801 5802 5803 5804 5805 5806 5807 5807
5652 5651 5650 5650 5650 5650 5650 5649 5649 5649 5649 5649 5649 5648 5648 5648 5648 5648 5649 5649 5649 5650 5652 5654 5657 5660 5662 5665 5667 5669 5670 5672 5673 5676 5678 5680 5683 5689 5693 5693 5692 5693 5697 5700 5700 5701 5703 5706 5708 5710 5712 5714 5716 5718 5721 5725 5726 5727 5728 5731 5731 5732 5734 5736 5738 5741 5743 5746 5749 5752 5755 5757 5758 5761 5762 5764 5766 5767 5769 5770 5772 5774 5776 5778 5780 5782 5783 5785 5787 5788 5790 5792 5793 5795 5796 5797 5799 5800 5801 5802 5803 5803 5804
5649 5648 5647 5646 5646 5646 5646 5646 5646 5645 5645 5645 5645 5645 5645 5645 5645 5645 5646 5646 5646 5647 5648 5650 5652 5656 5659 5662 5665 5666 5667 5668 5670 5672 5674 5676 5679 5682 5687 5689 5690 5691 5694 5695 5695 5697 5700 5704 5706 5706 5707 5710 5711 5712 5715 5719 5722 5722 5725 5728 5728 5727 5729 5731 5733 5736 5738 5742 5745 5748 5750 5752 5754 5756 5758 5760 5762 5764 5765 5767 5769 5771 5773 5774 5776 5778 5780 5782 5783 5785 5786 5788 5789 5791 5792 5794 5795 5797 5798 5799 5800 5800 5801
5647 5645 5643 5642 5642 5642 5642 5642 5642 5642 5642 5642 5642 5642 5642 5642 5641 5641 5642 5642 5643 5643 5645 5646 5649 5652 5655 5659 5662 5663 5664 5665 5666 5668 5670 5672 5675 5677 5680 5686 5690 5692 5690 5689 5690 5693 5699 5702 5702 5701 5701 5704 5706 5707 5709 5713 5717 5718 5719 5722 5724 5723 5723 5725 5728 5731 5734 5737 5741 5743 5745 5747 5749 5752 5753 5756 5758 5760 5761 5763 5765 5767 5769 5771 5772 5774 5776 5777 5779 5781 5782 5784 5786 5787 5789 5790 5792 5793 5794 5795 5796 5797 5798
5644 5642 5641 5639 5638 5638 5638 5638 5639 5639 5638 5638 5638 5638 5638 5638 5638 5638 5638 5639 5640 5640 5641 5642 5644 5647 5651 5655 5658 5659 5661 5662 5662 5664 5666 5669 5672 5674 5676 5680 5685 5688 5687 5685 5685 5690 5695 5696 5696 5695 5696 5699 5701 5702 5704 5708 5711 5713 5715 5717 5721 5722 5720 5721 5724 5727 5729 5732 5735 5738 5740 5742 5744 5746 5748 5751 5753 5755 5757 5759 5761 5763 5765 5767 5768 5770 5772 5774 5775 5777 5778 5780 5782 5783 5785 5787 5788 5789 5790 5792 5792 5793 5794
5641 5639 5638 5636 5635 5634 5634 5634 5635 5635 5635 5635 5635 5635 5635 5635 5635 5635 5635 5635 5636 5636 5637 5638 5640 5643 5646 5650 5653 5655 5656 5658 5659 5660 5662 5664 5668 5671 5672 5673 5676 5681 5686 5685 5685 5687 5689 5690 5690 5689 5691 5696 5698 5699 5701 5703 5706 5709 5713 5714 5717 5718 5716 5717 5720 5722 5724 5727 5730 5732 5735 5737 5740 5742 5743 5746 5748 5750 5752 5755 5757 5759 5761 5762 5765 5767 5768 5770 5772 5773 5775 5776 5778 5780 5781 5782 5784 5785 5786 5787 5789 5790 5791
5637 5636 5635 5633 5632 5631 5630 5630 5630 5631 5631 5631 5631 5631 5631 5631 5631 5631 5631 5632 5632 5632 5633 5635 5636 5639 5642 5645 5647 5649 5651 5653 5655 5657 5658 5660 5663 5666 5669 5671 5672 5674 5678 5681 5684 5685 5685 5685 5684 5685 5689 5693 5694 5695 5697 5699 5701 5704 5708 5712 5714 5714 5712 5713 5716 5717 5720 5722 5725 5728 5731 5732 5735 5737 5739 5741 5742 5745 5747 5750 5752 5754 5756 5758 5760 5762 5764 5766 5768 5770 5771 5773 5774 5776 5777 5778 5779 5781 5782 5783 5785 5786 5787
5633 5632 5631 5630 5628 5627 5626 5626 5626 5626 5627 5627 5627 5627 5627 5627 5627 5628 5628 5628 5628 5629 5630 5631 5632 5634 5637 5640 5642 5644 5645 5647 5650 5652 5654 5656 5658 5661 5664 5666 5667 5668 5671 5674 5677 5680 5681 5680 5680 5682 5686 5689 5689 5690 5693 5695 5697 5699 5702 5706 5707 5707 5708 5710 5712 5713 5716 5718 5722 5724 5726 5727 5730 5732 5734 5736 5738 5740 5742 5745 5747 5750 5752 5754 5756 5758 5760 5762 5764 5766 5768 5769 5770 5772 5773 5774 5775 5776 5778 5779 5780 5782 5782
5629 5629 5628 5627 5625 5624 5622 5622 5622 5622 5622 5623 5623 5623 5623 5623 5624 5624 5624 5624 5625 5625 5626 5627 5628 5629 5632 5635 5637 5639 5640 5641 5644 5648 5650 5651 5652 5654 5657 5660 5662 5663 5665 5667 5670 5673 5676 5677 5677 5679 5682 5684 5686 5687 5690 5691 5693 5696 5698 5700 5702 5703 5704 5706 5707 5710 5712 5714 5718 5721 5721 5723 5725 5727 5729 5731 5733 5736 5738 5740 5742 5745 5747 5749 5752 5754 5756 5758 5760 5762 5764 5765 5767 5767 5768 5770 5771 5772 5773 5775 5776 5777 5778